Location: Cruquius
(52.3348°N, 4.6319°E)
Time: 08:36:15
(UTC+00:00)

Cosmos 2082 Rocket - Pass Details

Date: 12 May 2021
Orbit: 834 x 853 km, 71.0° (Epoch: 20 June)

Event Time Altitude Azimuth Distance (km) Brightness Sun altitude
Rises 21:20:07 0° 327° (NNW) 3,394 7.4 -13.2°
Reaches altitude 10° 21:22:35 10° 324° (NW) 2,456 6.1 -13.4°
Maximum altitude 21:28:07 60° 246° (WSW) 958 2.5 -13.9°
Enters shadow 21:32:11 18° 172° (S) 1,922 3.5 -14.2°
